DECAYED

STARLINK-2362, 47902 (Decayed)

Orbit data source: Space-Track

STARLINK-2362, 47902 was a payload satellite owned by SpaceX/Seattle (US) in LEO that was launched on Sun, 14 Mar 2021 UTC via an FALCON 9 launch vehicle from the Air Force Eastern Test Range (AFETR). Payload-class satellites include a variety of spacecraft equipped with specific instruments for various scientific and technological missions. These include communications satellites like Starlink; space stations such as the ISS; scientific satellites like the Hubble; Earth observation satellites from companies like Planet Labs, Umbra, and HawkEye 360; GPS; miniature CubeSats for education and research; and military/defense satellites.

Not visible in the next 10 days
Identifier
47902, 2021-021AU
Orbit
Decayed
Country
Flag of USUS
Related business
Manufacturer
SpaceX/Seattle
Mission
Decayed Commercial Communications
Bus & Motor
STARLINK, Unknown motor
Mass
260 kg wet, ~248 kg dry
Launch date (UTC)
2021-03-14 (5 years ago)
Launch vehicle
FALCON 9
Launch site
Air Force Eastern Test Range (AFETR)
Object type
Payload
Rocket body
Debris
Shape & HBR
Box + 1 Pan, 10.1 m
Radar Cross Section
13.562 m², Large (>1 m²)

Expand to show TLE details & history
Last TLE update: 1 year ago

TLE from 1 year ago
0 STARLINK-2362
1 47902U 21021AU  25020.11108006  .09040649  12236-4  84754-3 0  9995
2 47902  53.0337 307.1597 0004563 208.4417 176.3888 16.37867760213661
Epoch: 2025-01-20T02:39Z
TLE epoch observation values (Epoch: 2025-01-20T02:39:57.317Z)
Latitude
19.64925°
Longitude
162.9313°
Altitude
174.915 km
Speed
7.803 km/s
True Right ascension
21h 30m 37s
True Declination
19° 31' 51"
Sunlit
Object was in daylight at epoch
Visualization orbit readout
Latitude
Unknown
Longitude
Unknown
Altitude
Unknown
Speed
Unknown
Apparent Right ascension
Unknown
Apparent Declination
Unknown
Sunlit
N/A
Visualization observer readout
Local Sidereal Time
21:26:22
Azimuth
Unknown
Elevation
Unknown
Doppler factor
Unknown
Orbital elements
Apogee altitude
174.759 km
Perigee altitude
168.781 km
Semi-major axis
6,549.907 km
Eccentricity
0.00046
Inclination
53.0337°
RAAN
307.1597°
Arg. of periapsis
208.4417°
True anomaly
176.39209°
Mean anomaly
176.3888°
Eccentric anomaly
176.39045°
Mean motion
4.0944 °/min
Orbital period
87.92 mins
BSTAR
0.00084754
Loading maneuver chart data...
Computing Atmospheric mass density...

Documentation

Showing up to 5 results
|